Home   Weather   Kansas City   Past weeks

Flag for USA Past Weather in Kansas City, Missouri, USA — Yesterday and Last 2 Weeks

Now
89 °F

Sunny.


Feels Like: 94 °F
Forecast: 65 / 88 °F
Wind: 12 mph from Southwest

Location: Kansas City Downtown Airport

Current Time: Aug 18, 2017 at 5:20:47 pm

Latest Report: Aug 18, 2017 at 3:54 pm


Visibility: 10 mi

Pressure: 29.87 "Hg

Humidity: 52%

Dew Point: 69 °F

Location of Kansas CityLocation

Past Weather in Kansas City — Graph

°F

Kansas City Temperature Yesterday

Maximum temperature yesterday: 84 °F (at 4:54 pm)
Minimum temperature yesterday: 69 °F (at 5:54 am)
Average temperature yesterday: 76 °F

High & Low Weather Summary for the Past Weeks

 TemperatureHumidityPressure
High89 °F (Aug 15, 3:54 pm)100% (Aug 5, 9:03 pm)30.19 "Hg (Aug 5, 9:03 pm)
Low58 °F (Aug 4, 6:54 am)39% (Aug 4, 5:54 pm)29.74 "Hg (Aug 16, 5:54 pm)
Average74 °F75%29.97 "Hg
* Reported Aug 3 3:54 pm — Aug 18 3:54 pm, Kansas City. Weather by CustomWeather, © 2017

Note: Actual official high and low records may vary slightly from our data, if they occured in-between our weather recording intervals... More about our weather records

Advertising

Kansas City Weather History for the Previous 24 Hours

Scroll right to see more
 ConditionsComfort  
Time TempWeatherWind HumidityBarometerVisibility
3:54 pm
Fri, Aug 18
89 °FSunny.12 mph52%29.87 "Hg10 mi
2:54 pm88 °FSunny.8 mph50%29.88 "Hg10 mi
1:54 pm87 °FSunny.10 mph51%29.89 "Hg10 mi
12:54 pm84 °FSunny.15 mph53%29.91 "Hg10 mi
11:54 am80 °FSunny.7 mph62%29.93 "Hg10 mi
10:54 am76 °FSunny.8 mph67%29.93 "Hg10 mi
9:54 am76 °FSunny.8 mph69%29.96 "Hg10 mi
8:54 am75 °FPassing clouds.6 mph74%29.93 "Hg10 mi
7:54 am72 °FSunny.No wind76%29.94 "Hg10 mi
6:54 am70 °FSunny.No wind76%29.93 "Hg10 mi
5:54 am69 °FClear.3 mph81%29.91 "Hg10 mi
4:54 am69 °FClear.No wind84%29.90 "Hg10 mi
3:54 am69 °FClear.No wind84%29.92 "Hg10 mi
2:54 am70 °FClear.No wind81%29.93 "Hg10 mi
1:54 am71 °FClear.No wind81%29.93 "Hg10 mi
12:54 am73 °FClear.No wind76%29.93 "Hg10 mi
11:54 pm
Thu, Aug 17
71 °FClear.No wind90%29.93 "Hg10 mi
10:54 pm74 °FClear.No wind82%29.93 "Hg10 mi
9:54 pm75 °FClear.No wind71%29.91 "Hg10 mi
8:54 pm79 °FClear.3 mph60%29.90 "Hg10 mi
7:54 pm80 °FSunny.7 mph56%29.88 "Hg10 mi
6:54 pm84 °FSunny.7 mph45%29.89 "Hg10 mi
5:54 pm84 °FSunny.7 mph48%29.89 "Hg10 mi
Weather by CustomWeather, © 2017

See weather overviewHow to use our weather pages